Simultaneous Nadir Overpasses (SNOs) Predictions

Prediction of SNOs between LANDSAT-8 and NPP Satellite Orbit:

Table of predicted SNOs for the next 14.0 days since TLE Epoch: 2/22/2014
Index Date (LANDSAT-8) Time (LANDSAT-8) Lat,Lon (LANDSAT-8) SZA (LANDSAT-8 ) Date (NPP) Time (NPP) Lat,Lon (NPP) SZA (NPP ) Distance(km) Time Diff (sec)
1 02/23/2014 05:20:12 70.30, 96.74 80.17 02/23/2014 05:19:49 70.27, 96.78 80.15 2.99 23
2 02/23/2014 06:09:42 -70.17, -95.80 99.96 02/23/2014 06:10:31 -70.18, -95.76 99.96 1.50 49
3 02/25/2014 20:47:12 -70.35, 45.05 100.77 02/25/2014 20:46:02 -70.37, 45.09 100.73 2.86 70
4 02/25/2014 21:36:39 70.25,-147.45 79.13 02/25/2014 21:36:46 70.26,-147.42 79.14 1.41 7
5 02/25/2014 22:26:12 -69.96, 19.78 101.15 02/25/2014 22:27:24 -69.95, 20.37 101.20 22.29 72
6 02/28/2014 13:03:38 -70.32, 160.90 101.80 02/28/2014 13:02:58 -70.30, 160.97 101.81 3.41 40
7 02/28/2014 13:53:05 70.22, -31.61 78.09 02/28/2014 13:53:42 70.19, -31.55 78.06 3.27 37
8 03/03/2014 04:30:30 70.59, 109.55 77.45 03/03/2014 04:29:18 70.66, 108.86 77.56 26.88 72
9 03/03/2014 05:20:03 -70.31, -83.22 102.83 03/03/2014 05:19:55 -70.30, -83.24 102.85 1.88 8
10 03/03/2014 06:09:30 70.21, 84.27 77.06 03/03/2014 06:10:39 70.19, 84.23 77.04 1.98 69
11 03/05/2014 20:46:57 70.38,-134.86 76.22 03/05/2014 20:46:08 70.35,-134.87 76.20 3.42 49
12 03/05/2014 21:36:27 -70.27, 32.61 103.91 03/05/2014 21:36:50 -70.25, 32.62 103.94 2.87 23
13 03/08/2014 12:13:42 -71.12, 174.51 104.11 03/08/2014 12:12:34 -71.14, 172.31 104.01 79.16 68
14 03/08/2014 13:03:22 70.30, -19.09 75.10 03/08/2014 13:03:04 70.31, -19.02 75.11 2.59 18
15 03/08/2014 13:52:51 -70.25, 148.47 104.98 03/08/2014 13:53:47 -70.25, 148.39 104.97 3.10 56




NCC Satellite Simultaneous Nadir Overpasses (SNOs) Prediction Service
